Simultaneous Nadir Overpasses (SNOs) Predictions

Prediction of SNOs between GOES-15 and TERRA Satellite Orbit:

Table of predicted SNOs for the next 14.0 days since TLE Epoch: 3/8/2014
Index Date Time (GOES-15) GOES-15 Lat,Lon TERRA Lat,Lon Distance(km) Time Diff (sec)
1 03/08/2014 19:27:37 0.06,-134.82 -0.07,-134.11 80.72 80
2 03/10/2014 19:15:23 0.06,-134.74 -0.73,-131.14 410.13 80
3 03/11/2014 07:36:46 -0.06,-134.69 -0.40,-136.32 186.19 80
4 03/13/2014 07:21:51 -0.05,-134.60 0.22,-133.35 142.95 80
5 03/13/2014 19:43:05 0.05,-134.62 0.90,-138.49 441.25 80
6 03/15/2014 07:09:35 -0.05,-134.52 0.81,-130.36 471.89 80
7 03/15/2014 19:30:50 0.05,-134.53 0.25,-135.52 112.33 80
8 03/17/2014 19:21:14 0.05,-134.44 -0.37,-132.54 216.23 80
9 03/18/2014 07:42:36 -0.05,-134.38 -0.79,-137.72 379.96 80
10 03/20/2014 07:30:20 -0.05,-134.28 -0.13,-134.74 52.25 80




NCC Satellite Simultaneous Nadir Overpasses (SNOs) Prediction Service
